Regional Weather Roundup
Issued by NWS State College, PA

Home | Current Version | Previous Version | Graphics & Text | Print | Product List | Glossary On
Versions: 1 2 3 4 5 6 7 8 9 10 11 12 13 14 15 16 17 18 19 20 21 22 23 24 25 26 27 28 29 30 31 32 33 34 35 36 37 38 39 40 41 42 43 44 45 46 47 48 49 50
906
ASUS41 KCTP 230010
RWRCTP

REGIONAL WEATHER ROUNDUP
NATIONAL WEATHER SERVICE STATE COLLEGE PA
800 PM EDT SAT APR 22 2017

Note: "fair" indicates few or no clouds below 12,000 feet with no
significant weather and/or obstructions to visibility.

* = STATION THAT DOES NOT REPORT PRECIPITATION /E.G. RAIN...SNOW...ETC/
    THUNDER OR FOG.

PAZ002>004-007>009-013>016-020>023-029>032-230100-
WESTERN PENNSYLVANIA

CITY           SKY/WX    TMP DP  RH WIND       PRES   REMARKS
ERIE           CLOUDY    46  35  65 NW3       30.09S
MEADVILLE      PTCLDY    47  34  60 N7        30.06S
FRANKLIN*      PTCLDY    46  27  46 N6        30.06R
NEW CASTLE     FAIR      50  32  50 N6        30.07R
BEAVER COUNTY  NOT AVBL
BUTLER*        CLOUDY    52  32  46 N3        30.05R
PITTSBURGH INT CLOUDY    53  37  54 N7        30.04R
PITTSBURGH     CLOUDY    51  36  56 N6        30.02R
INDIANA*       CLEAR     52  37  58 CALM      30.04R
LATROBE        MOCLDY    50  37  62 N6        30.03R
WASHINGTON CO* CLOUDY    50  36  57 N3        30.05S
$$

PAZ004>006-010>012-017>019-024>028-033>037-041-042-045-046-049>053-230100-
CENTRAL PENNSYLVANIA

CITY           SKY/WX    TMP DP  RH WIND       PRES   REMARKS
BRADFORD       PTCLDY    45  33  63 N6        30.03R
DUBOIS         PTCLDY    49  32  52 N10       30.01S
CLEARFIELD     PTCLDY    52  32  46 NE7       30.00S
JOHNSTOWN      CLOUDY    48  35  60 N7        29.99S
ALTOONA        CLOUDY    52  38  58 N8        29.99S
STATE COLLEGE  CLEAR     54  36  50 N8        29.98S
WILLIAMSPORT   CLOUDY    53  34  48 N9        30.01R
SELINSGROVE    MOCLDY    51  40  65 N7        30.01R
FT INDIANTOWN  CLOUDY    54  39  58 NW7       29.99R
CAPITAL CITY   CLOUDY    53  44  71 W5        29.99R
HARRISBURG     MOCLDY    53  44  71 NW5       29.98R
YORK           CLOUDY    51  49  92 W5        29.99R
$$

PAZ038>040-043-044-047-048-054-055-060>062-067>071-230100-
EASTERN PENNSYLVANIA

CITY           SKY/WX    TMP DP  RH WIND       PRES   REMARKS
SCRANTON       CLOUDY    48  35  60 N13       30.02R
MOUNT POCONO   CLOUDY    43  35  73 N9        29.97S
ALLENTOWN      CLOUDY    53  39  59 N7        29.98S
QUAKERTOWN*    CLOUDY    52  39  62 N3        29.98S
READING        CLOUDY    54  47  77 N3        29.96S
LANCASTER      CLOUDY    53  46  77 NW5       29.98R
COATESVILLE    CLOUDY    52  50  93 N3        29.98S
POTTSTOWN      CLOUDY    52  46  80 N3        29.98S
BLUE BELL      CLOUDY    50  50 100 CALM      29.98S
DOYLESTOWN     CLOUDY    52  47  83 CALM      29.97S
WILLOW GROVE   NOT AVBL
NORTH PHILA    MOCLDY    54  50  86 N3        29.98F
PHILADELPHIA   CLOUDY    53  49  86 N7        29.97F
$$




USA.gov is the U.S. government's official web portal to all federal, state and local government web resources and services.